Location: Chippewa Lake
(41.0698°N, 81.9010°W)
Time: 20:54:30
(UTC+00:00)

COSMOS 2455 - Pass Details

Date: 09 May 2021
Orbit: 902 x 908 km, 67.1° (Epoch: 17 June)

Event Time Altitude Azimuth Distance (km) Brightness Sun altitude
Rises 09:05:43 0° 318° (NW) 3,541 5.9 -12.2°
Reaches altitude 10° 09:08:39 10° 306° (NW) 2,595 5.1 -11.7°
Maximum altitude 09:13:23 25° 254° (WSW) 1,755 3.8 -11.0°
Drops below altitude 10° 09:18:07 10° 201° (SSW) 2,581 4.7 -10.3°
Sets 09:21:02 0° 189° (S) 3,518 5.5 -9.8°
